Starlink 32902

operational
NORAD ID: 62898 Int'l Des: 2025-024 Owner: SPXS Country: US Constellation: starlink
LEOCIRCULAR

About Starlink 32902

Description loading...

Live Position

Loading 3D Globe...

Upcoming Passes

Altitude History

Altitude vs Time

uPlot chart will show altitude changes over time

Two-Line Element Set

1 62898U 25024V 26036.67066233 .00036847 00000-0 13400-2 0 9994
2 62898 43.0024 145.7895 0002284 282.1017 77.9578 15.27623307 57375
Epoch: Feb 5, 2026 • Age: 20 hours

Current Status

Altitude 491.3 km
Velocity 7.62 km/s
Sub-Earth Point -35.07°S, 132.23°E
Launch Date Feb 4, 2025
Age 1 years
Type internet

Technical Details

Classification Payload
Mass 730.00 kg
Dry Mass 700.00 kg
Total Mass 730.00 kg
Length 0.30 m
Diameter 4.10 m
Span 29.00 m
Shape Box + pan
Manufacturer SPXS
Bus Type Starlink V2M
Phase Status In Orbit
Owner/State SPXS/US

Large Constellations

Loading constellations...